SCP
0 0 0 0 0 0 0 0 0 0 0 0 0 0 0 0 0 0 0 0 0 0 0 0 0 0 0 0 0 0 0 0 0 0 0 0 0 0 0 0 0 0 0 0
0 0 0 0 0 0 0 0 0 0 0 0 0 0 0 0 0 0 0 0 0 0 0 0 0 0 0 0 0 0 0 0 0 0 0 0 0 0 0 0 0 0 0 0
0 0 0 0 0 0 0 0 0 0 0 0 0 0 0 0 0 0 0 0 0 0 0 0 0 0 0 0 0 0 0 0 0 0 0 0 0 0 0 0 0 0 0 0
0 0 0 0 0 0 0 0 0 0 0 0 0 0 0 0 0 0 0 0 0 0 0 0 0 0 0 0 0 0 0 0 0 0 0 0 0 0 0 0 0 0 0 0
0 0 0 0 0 0 0 0 0 0 0 0 0 0 0 0 0 0 0 0 0 0 0 0 0 0 0 0 0 0 0 0 0 0 0 0 0 -0 0 0 0 0 0 0
0 0 0 0 0 0 0 0 0 0 0 0 0 0 0 0 0 0 0 0 0 0 0 0 0 0 0 0 0 0 0 0 0 0 0 0 0 -0 0 0 0 0 0 0
0 0 0 0 0 0 0 0 0 0 0 0 0 0 0 0 0 0 0 0 0 0 0 0 0 0 0 0 0 0 0 -0 -0 -0 -0 -0 -0 -0 -0 0 0 0 0 0
0 0 0 0 0 0 0 0 0 0 0 0 0 0 0 0 0 0 0 0 0 0 0 0 0 0 0 0 0 0 -0 -0 -0 -0 -0 -0 0 0 0 0 0 0 0 0
0 0 0 0 0 0 0 0 0 0 0 0 0 0 0 0 0 0 0 0 0 0 0 0 0 0 0 0 0 -0 -0 -0 -0 0 0 0 0 0 0 0 0 0 0 0
0 0 0 0 0 0 0 0 0 0 0 0 0 0 0 0 0 0 0 0 0 0 0 0 0 0 0 0 0 0 -0 0 0 0 0 0 0 0 0 0 0 0 0 0
0 0 0 0 0 0 0 0 0 0 0 0 0 0 0 0 0 0 0 0 0 0 0 0 0 0 0 0 0 -0 0 0 0 0 0 0 0 0 0 0 0 0 0 0
0 0 0 0 0 0 0 0 0 0 0 0 0 0 0 0 0 0 0 0 0 0 0 0 0 0 0 0 0 -0 0 0 0 0 0 0 0 0 0 0 0 0 0 0
0 0 0 0 0 0 0 0 0 0 0 0 0 0 0 0 0 0 0 0 0 0 0 0 0 0 0 0 0 0 0 0 0 0 0 0 0 0 0 0 0 0 0 0
0 0 0 0 0 0 0 0 0 0 0 0 0 0 0 0 0 0 0 0 0 0 0 0 0 0 0 0 0 0 0 0 0 0 0 0 0 0 0 0 0 0 0 0
0 0 0 0 0 0 0 0 0 0 0 0 0 0 0 0 0 0 0 0 0 0 0 0 0 0 0 0 0 0 0 0 0 0 0 0 0 0 0 0 0 0 0 0
0 0 0 0 0 0 0 0 0 0 0 0 0 0 0 0 0 0 0 0 0 0 0 0 0 0 0 0 0 0 0 0 0 0 0 0 0 0 0 0 0 0 0 0
0 0 0 0 0 0 0 0 0 0 0 0 0 0 0 0 0 0 0 0 0 0 0 0 0 0 0 0 0 0 0 0 0 0 0 0 0 0 0 0 0 0 0 0
0 0 0 0 0 0 0 0 0 0 0 0 0 0 0 0 0 0 0 0 0 0 0 0 0 0 0 0 0 0 0 0 0 0 0 0 0 0 0 0 0 0 0 0
0 0 0 0 0 0 0 0 0 0 0 0 0 0 0 0 0 0 0 0 0 0 0 0 0 0 0 0 0 0 0 0 0 0 0 0 0 0 0 0 0 0 0 0
0 0 0 0 0 0 0 0 0 0 0 0 0 0 0 0 0 0 0 0 0 0 0 0 0 0 0 0 0 0 0 0 0 0 0 0 0 0 0 0 0 0 0 0
0 0 0 0 0 0 0 0 0 0 0 0 0 0 0 0 0 0 0 0 0 0 0 0 0 0 0 0 0 0 0 0 0 0 0 0 0 0 0 0 0 0 0 0
0 0 0 0 0 0 0 0 0 0 0 0 0 0 0 0 0 0 0 0 0 0 0 0 0 0 0 0 0 0 0 0 0 0 0 0 0 0 0 0 0 0 0 0
0 0 0 0 0 0 0 0 0 0 0 0 0 0 0 0 0 0 0 0 0 0 0 0 0 0 0 0 0 0 0 0 0 0 0 0 0 0 0 0 0 0 0 0
0 0 0 0 0 0 0 0 0 0 0 0 0 0 0 0 0 0 0 0 0 0 0 0 0 0 0 0 0 0 0 0 0 0 0 0 0 0 0 0 0 0 0 0
0 0 0 0 0 0 0 0 0 0 0 0 0 0 0 0 0 0 0 0 0 0 0 0 0 0 0 0 0 0 0 0 0 0 0 0 0 0 0 0 0 0 0 0
0 0 0 0 0 0 0 0 0 0 0 0 0 0 0 0 0 0 0 0 0 0 0 0 0 0 0 0 0 0 0 0 0 0 0 0 0 0 0 0 0 0 0 0
Wind_Speed_500mb
6 7 16 24 20 5 7 9 11 7 4 2 13 11 11 17 26 24 25 28 32 35 35 31 29 27 27 25 25 29 29 34 26 21 18 12 4 6 4 5 8 7 8 11
7 12 21 7 9 10 4 4 10 10 7 11 9 9 6 13 11 16 26 31 35 39 41 46 48 49 50 49 46 40 37 30 25 17 20 19 14 10 6 6 7 9 15 20
15 11 13 12 9 11 9 12 8 14 7 2 6 9 8 9 22 24 24 28 33 38 42 44 48 53 53 55 56 53 51 45 40 34 27 22 18 22 16 16 14 13 12 10
12 9 11 8 11 13 9 15 11 7 5 8 3 9 5 9 8 10 20 25 29 32 37 41 45 49 52 51 49 48 47 42 41 35 30 28 30 28 33 30 29 25 21 18
13 12 10 12 12 14 11 9 10 6 7 4 6 3 7 12 9 11 21 26 28 29 33 38 42 46 46 43 42 41 39 34 34 29 29 28 29 32 29 26 22 23 24 25
8 3 11 14 5 10 16 11 11 8 5 2 13 13 7 11 11 14 28 33 34 32 33 35 37 37 37 35 32 28 26 28 27 25 26 26 27 25 18 19 17 21 22 23
3 8 5 6 11 4 8 12 1 6 2 10 2 5 13 12 8 32 43 50 43 39 36 35 34 31 29 27 24 22 21 23 22 21 21 22 23 22 24 24 26 27 30 33
14 7 18 11 11 13 11 13 10 12 7 7 2 12 10 2 11 27 59 60 51 45 40 36 32 28 24 20 20 19 18 19 18 17 19 20 21 23 23 24 28 32 35 37
10 6 3 5 6 7 8 8 5 13 6 5 9 10 2 5 3 25 51 60 56 51 46 39 31 24 20 18 18 17 15 15 15 15 16 18 22 23 27 29 32 35 37 41
12 5 2 5 8 8 8 11 7 5 3 8 8 11 10 12 18 18 32 53 62 56 49 42 34 27 23 18 17 15 12 9 10 12 15 18 20 23 26 29 32 34 37 41
12 7 3 8 12 18 6 6 7 8 8 10 4 11 11 18 30 36 44 67 69 63 55 46 36 28 23 22 19 14 8 4 5 9 15 20 23 26 29 30 33 36 38 42
13 10 8 13 3 1 4 14 14 12 11 6 5 22 5 7 31 49 55 73 73 67 58 48 40 33 30 27 20 15 10 7 10 16 20 25 30 33 36 39 43 47 51 54
17 3 4 11 4 2 9 11 8 7 7 23 9 17 8 9 21 42 45 66 71 64 56 48 44 42 36 31 26 18 12 11 16 20 23 29 33 37 41 47 52 57 61 64
19 8 15 23 11 10 10 12 12 11 13 15 33 30 7 8 14 28 53 57 65 62 58 56 53 47 39 35 28 19 14 18 22 27 30 35 38 41 47 53 58 63 67 72
12 12 7 4 6 4 6 11 22 25 32 23 29 27 12 21 23 44 54 53 51 54 59 61 59 52 43 38 31 27 23 27 32 33 34 39 43 47 52 58 62 65 72 78
3 9 7 6 3 6 7 21 16 30 19 16 1 25 12 26 32 26 43 58 53 53 56 61 59 52 46 39 33 32 34 39 38 36 38 43 49 56 61 63 65 70 76 82
12 12 8 16 7 6 15 32 30 13 10 17 24 22 9 11 21 41 45 57 50 45 51 55 58 53 43 38 35 38 42 44 42 41 44 47 55 61 63 64 68 75 82 87
12 10 3 6 5 15 11 7 3 25 9 13 2 7 16 16 35 30 30 37 43 36 36 43 45 40 36 35 38 44 47 47 45 46 48 53 60 62 64 67 73 79 84 88
5 9 6 7 9 13 8 8 13 14 17 16 18 13 19 14 10 17 29 29 27 30 34 37 35 33 31 34 39 45 48 48 50 51 53 58 60 63 66 72 78 82 85 88
5 5 12 7 9 16 9 6 20 11 10 18 33 15 23 27 5 8 29 32 35 36 39 41 32 27 28 33 39 46 53 54 53 52 55 58 60 62 68 74 79 82 84 87
8 2 21 18 13 13 9 14 21 11 14 11 28 29 42 11 15 10 9 30 35 39 42 29 25 28 29 34 38 46 53 54 52 53 55 56 56 63 71 77 78 80 83 86
14 16 8 4 6 21 27 9 16 11 13 24 28 36 47 32 15 17 20 25 43 53 41 33 36 35 34 38 45 52 54 52 52 52 52 52 59 65 70 74 71 72 75 80
5 13 12 20 12 2 63 8 36 25 33 37 39 36 25 27 34 34 34 36 41 42 40 45 44 44 44 47 52 52 50 50 52 51 50 56 63 67 67 67 67 71 70 73
8 6 5 6 6 8 44 37 21 36 34 32 37 38 31 33 36 38 37 42 40 40 45 49 51 54 52 53 53 50 49 50 51 48 52 59 66 67 62 62 62 66 66 69
7 16 12 2 6 2 30 40 40 40 41 41 40 37 41 34 36 38 37 41 46 49 49 51 54 54 52 52 49 49 49 48 46 49 54 60 64 62 62 59 57 60 61 59
16 12 9 9 28 22 21 34 36 46 47 41 41 49 50 46 44 41 46 43 45 47 52 54 55 52 55 51 48 48 48 45 46 51 54 58 58 57 58 61 61 44 52 51
Wind_Direction_500mb
140 127 206 201 200 172 144 183 213 248 248 35 251 260 21 40 66 76 79 79 76 72 71 73 75 77 83 87 89 87 95 94 105 120 128 141 144 58 19 33 46 6 345 323
60 225 228 142 169 199 167 182 250 282 269 169 278 238 80 53 63 100 109 101 97 96 91 87 85 85 82 82 83 87 89 94 92 93 94 102 107 94 67 28 338 319 308 301
180 211 154 174 180 180 193 207 200 227 343 294 331 278 178 65 102 110 109 113 112 105 99 95 92 87 86 84 83 82 80 80 81 80 81 83 88 94 93 76 70 62 51 37
227 251 182 170 208 149 218 198 187 186 118 230 62 275 214 154 127 102 129 131 124 115 108 103 98 93 88 85 83 80 77 77 79 83 90 98 95 88 77 71 67 66 64 60
233 174 183 196 199 170 222 120 145 132 137 39 288 337 249 133 191 180 173 155 142 131 120 112 105 100 94 89 81 74 70 71 76 75 75 75 77 77 77 70 56 50 46 38
231 222 165 197 115 166 144 82 58 59 92 279 229 189 228 193 193 172 184 174 159 146 135 125 116 108 98 91 86 80 79 82 81 79 76 73 76 77 71 60 42 33 22 13
213 216 180 169 93 62 99 100 305 350 358 229 326 173 250 190 178 180 180 179 170 160 152 143 133 121 112 106 95 88 82 80 76 68 63 55 46 35 27 20 12 5 359 357
168 217 164 188 189 171 179 164 157 211 210 259 353 232 261 286 295 208 183 176 173 170 166 160 150 141 132 121 112 103 91 85 79 65 54 42 32 21 15 10 3 357 353 350
152 265 102 128 133 132 186 183 174 99 52 31 224 281 208 115 68 149 171 180 183 179 177 173 165 155 150 141 129 115 99 85 73 58 45 30 20 10 1 354 349 345 342 340
207 121 156 137 105 47 157 161 86 21 196 255 270 268 233 202 202 185 180 189 189 189 186 183 179 173 169 163 153 139 119 93 64 39 22 11 356 344 334 332 327 326 324 323
150 143 210 124 207 170 140 187 68 129 145 180 261 259 214 204 187 186 190 195 196 195 194 192 186 185 185 180 171 163 153 102 32 358 344 334 327 322 320 319 316 314 316 317
191 136 168 189 144 47 184 192 167 186 218 232 164 260 79 229 181 184 195 202 202 203 200 198 195 198 196 191 188 189 208 258 301 316 324 321 317 315 315 318 319 320 320 320
180 175 75 352 358 321 204 196 165 104 73 217 172 253 43 94 160 195 200 208 208 207 205 204 204 206 205 201 201 210 231 260 290 301 311 320 315 312 314 316 317 316 315 315
146 147 177 218 190 135 183 196 188 167 215 227 232 259 172 194 198 201 215 216 211 208 208 212 211 211 209 207 210 219 244 272 285 294 296 308 312 309 308 309 310 310 311 312
156 201 176 131 143 157 221 199 193 204 226 218 255 228 203 198 206 214 221 217 212 210 212 217 218 213 211 213 218 229 253 279 275 281 286 298 306 307 305 305 306 307 310 311
325 186 117 251 59 51 272 246 203 221 237 251 242 258 157 213 218 215 222 209 209 214 221 223 218 215 216 219 228 238 255 265 265 272 285 295 303 305 304 304 305 307 310 312
173 134 137 241 113 110 272 245 211 190 182 181 215 239 169 209 215 224 223 210 213 232 228 222 218 216 221 227 234 243 254 258 264 273 280 283 294 300 302 303 306 309 312 314
151 116 96 136 79 230 250 25 56 208 228 204 269 232 198 222 234 237 231 227 228 229 228 219 213 213 221 224 241 253 257 256 262 267 275 286 296 300 302 306 310 313 314 315
14 132 139 171 209 309 260 193 159 162 251 194 207 218 203 182 178 231 217 220 225 232 225 208 209 208 224 247 260 263 259 261 263 269 279 291 299 302 305 310 313 315 315 315
79 16 190 135 204 232 269 188 152 116 277 212 201 177 162 153 159 232 203 207 209 205 204 193 204 229 245 259 266 261 257 257 261 272 285 296 301 303 310 313 315 317 317 316
121 81 212 212 229 278 201 171 161 117 257 184 199 186 170 186 191 138 184 209 211 207 195 211 240 257 263 268 268 258 255 258 268 281 292 298 301 308 312 313 317 318 317 316
155 168 199 132 224 260 156 108 167 201 166 175 176 185 190 199 221 239 239 226 214 206 214 242 259 254 262 266 262 256 258 266 277 288 296 299 305 308 312 314 316 314 315 316
247 188 180 188 206 200 175 172 200 180 173 182 185 185 203 224 231 230 230 215 204 211 241 250 251 252 257 259 257 259 265 276 286 293 296 302 306 311 314 315 316 316 319 319
256 156 164 99 209 210 199 217 216 207 215 220 215 218 217 226 230 232 233 220 216 238 252 250 249 248 253 256 257 263 272 280 287 290 297 304 308 311 313 316 318 318 322 322
212 141 147 283 275 257 236 229 229 225 231 237 238 236 231 241 239 235 239 237 247 256 259 255 254 251 253 256 260 268 275 281 283 290 299 305 308 310 313 315 319 322 324 326
192 156 163 208 204 187 215 231 246 244 245 255 266 258 248 246 252 250 251 253 255 259 261 256 250 246 251 255 262 268 273 276 284 293 300 303 306 311 314 316 316 321 321 328
Wind_Speed_850mb
6 7 16 24 20 5 7 9 11 7 4 2 13 11 11 17 26 24 25 28 32 35 35 31 29 27 27 25 25 29 29 34 26 21 18 12 4 6 4 5 8 7 8 11
7 12 21 7 9 10 4 4 10 10 7 11 9 9 6 13 11 16 26 31 35 39 41 46 48 49 50 49 46 40 37 30 25 17 20 19 14 10 6 6 7 9 15 20
15 11 13 12 9 11 9 12 8 14 7 2 6 9 8 9 22 24 24 28 33 38 42 44 48 53 53 55 56 53 51 45 40 34 27 22 18 22 16 16 14 13 12 10
12 9 11 8 11 13 9 15 11 7 5 8 3 9 5 9 8 10 20 25 29 32 37 41 45 49 52 51 49 48 47 42 41 35 30 28 30 28 33 30 29 25 21 18
13 12 10 12 12 14 11 9 10 6 7 4 6 3 7 12 9 11 21 26 28 29 33 38 42 46 46 43 42 41 39 34 34 29 29 28 29 32 29 26 22 23 24 25
8 3 11 14 5 10 16 11 11 8 5 2 13 13 7 11 11 14 28 33 34 32 33 35 37 37 37 35 32 28 26 28 27 25 26 26 27 25 18 19 17 21 22 23
3 8 5 6 11 4 8 12 1 6 2 10 2 5 13 12 8 32 43 50 43 39 36 35 34 31 29 27 24 22 21 23 22 21 21 22 23 22 24 24 26 27 30 33
14 7 18 11 11 13 11 13 10 12 7 7 2 12 10 2 11 27 59 60 51 45 40 36 32 28 24 20 20 19 18 19 18 17 19 20 21 23 23 24 28 32 35 37
10 6 3 5 6 7 8 8 5 13 6 5 9 10 2 5 3 25 51 60 56 51 46 39 31 24 20 18 18 17 15 15 15 15 16 18 22 23 27 29 32 35 37 41
12 5 2 5 8 8 8 11 7 5 3 8 8 11 10 12 18 18 32 53 62 56 49 42 34 27 23 18 17 15 12 9 10 12 15 18 20 23 26 29 32 34 37 41
12 7 3 8 12 18 6 6 7 8 8 10 4 11 11 18 30 36 44 67 69 63 55 46 36 28 23 22 19 14 8 4 5 9 15 20 23 26 29 30 33 36 38 42
13 10 8 13 3 1 4 14 14 12 11 6 5 22 5 7 31 49 55 73 73 67 58 48 40 33 30 27 20 15 10 7 10 16 20 25 30 33 36 39 43 47 51 54
17 3 4 11 4 2 9 11 8 7 7 23 9 17 8 9 21 42 45 66 71 64 56 48 44 42 36 31 26 18 12 11 16 20 23 29 33 37 41 47 52 57 61 64
19 8 15 23 11 10 10 12 12 11 13 15 33 30 7 8 14 28 53 57 65 62 58 56 53 47 39 35 28 19 14 18 22 27 30 35 38 41 47 53 58 63 67 72
12 12 7 4 6 4 6 11 22 25 32 23 29 27 12 21 23 44 54 53 51 54 59 61 59 52 43 38 31 27 23 27 32 33 34 39 43 47 52 58 62 65 72 78
3 9 7 6 3 6 7 21 16 30 19 16 1 25 12 26 32 26 43 58 53 53 56 61 59 52 46 39 33 32 34 39 38 36 38 43 49 56 61 63 65 70 76 82
12 12 8 16 7 6 15 32 30 13 10 17 24 22 9 11 21 41 45 57 50 45 51 55 58 53 43 38 35 38 42 44 42 41 44 47 55 61 63 64 68 75 82 87
12 10 3 6 5 15 11 7 3 25 9 13 2 7 16 16 35 30 30 37 43 36 36 43 45 40 36 35 38 44 47 47 45 46 48 53 60 62 64 67 73 79 84 88
5 9 6 7 9 13 8 8 13 14 17 16 18 13 19 14 10 17 29 29 27 30 34 37 35 33 31 34 39 45 48 48 50 51 53 58 60 63 66 72 78 82 85 88
5 5 12 7 9 16 9 6 20 11 10 18 33 15 23 27 5 8 29 32 35 36 39 41 32 27 28 33 39 46 53 54 53 52 55 58 60 62 68 74 79 82 84 87
8 2 21 18 13 13 9 14 21 11 14 11 28 29 42 11 15 10 9 30 35 39 42 29 25 28 29 34 38 46 53 54 52 53 55 56 56 63 71 77 78 80 83 86
14 16 8 4 6 21 27 9 16 11 13 24 28 36 47 32 15 17 20 25 43 53 41 33 36 35 34 38 45 52 54 52 52 52 52 52 59 65 70 74 71 72 75 80
5 13 12 20 12 2 63 8 36 25 33 37 39 36 25 27 34 34 34 36 41 42 40 45 44 44 44 47 52 52 50 50 52 51 50 56 63 67 67 67 67 71 70 73
8 6 5 6 6 8 44 37 21 36 34 32 37 38 31 33 36 38 37 42 40 40 45 49 51 54 52 53 53 50 49 50 51 48 52 59 66 67 62 62 62 66 66 69
7 16 12 2 6 2 30 40 40 40 41 41 40 37 41 34 36 38 37 41 46 49 49 51 54 54 52 52 49 49 49 48 46 49 54 60 64 62 62 59 57 60 61 59
16 12 9 9 28 22 21 34 36 46 47 41 41 49 50 46 44 41 46 43 45 47 52 54 55 52 55 51 48 48 48 45 46 51 54 58 58 57 58 61 61 44 52 51
Wind_Direction_850mb
140 127 206 201 200 172 144 183 213 248 248 35 251 260 21 40 66 76 79 79 76 72 71 73 75 77 83 87 89 87 95 94 105 120 128 141 144 58 19 33 46 6 345 323
60 225 228 142 169 199 167 182 250 282 269 169 278 238 80 53 63 100 109 101 97 96 91 87 85 85 82 82 83 87 89 94 92 93 94 102 107 94 67 28 338 319 308 301
180 211 154 174 180 180 193 207 200 227 343 294 331 278 178 65 102 110 109 113 112 105 99 95 92 87 86 84 83 82 80 80 81 80 81 83 88 94 93 76 70 62 51 37
227 251 182 170 208 149 218 198 187 186 118 230 62 275 214 154 127 102 129 131 124 115 108 103 98 93 88 85 83 80 77 77 79 83 90 98 95 88 77 71 67 66 64 60
233 174 183 196 199 170 222 120 145 132 137 39 288 337 249 133 191 180 173 155 142 131 120 112 105 100 94 89 81 74 70 71 76 75 75 75 77 77 77 70 56 50 46 38
231 222 165 197 115 166 144 82 58 59 92 279 229 189 228 193 193 172 184 174 159 146 135 125 116 108 98 91 86 80 79 82 81 79 76 73 76 77 71 60 42 33 22 13
213 216 180 169 93 62 99 100 305 350 358 229 326 173 250 190 178 180 180 179 170 160 152 143 133 121 112 106 95 88 82 80 76 68 63 55 46 35 27 20 12 5 359 357
168 217 164 188 189 171 179 164 157 211 210 259 353 232 261 286 295 208 183 176 173 170 166 160 150 141 132 121 112 103 91 85 79 65 54 42 32 21 15 10 3 357 353 350
152 265 102 128 133 132 186 183 174 99 52 31 224 281 208 115 68 149 171 180 183 179 177 173 165 155 150 141 129 115 99 85 73 58 45 30 20 10 1 354 349 345 342 340
207 121 156 137 105 47 157 161 86 21 196 255 270 268 233 202 202 185 180 189 189 189 186 183 179 173 169 163 153 139 119 93 64 39 22 11 356 344 334 332 327 326 324 323
150 143 210 124 207 170 140 187 68 129 145 180 261 259 214 204 187 186 190 195 196 195 194 192 186 185 185 180 171 163 153 102 32 358 344 334 327 322 320 319 316 314 316 317
191 136 168 189 144 47 184 192 167 186 218 232 164 260 79 229 181 184 195 202 202 203 200 198 195 198 196 191 188 189 208 258 301 316 324 321 317 315 315 318 319 320 320 320
180 175 75 352 358 321 204 196 165 104 73 217 172 253 43 94 160 195 200 208 208 207 205 204 204 206 205 201 201 210 231 260 290 301 311 320 315 312 314 316 317 316 315 315
146 147 177 218 190 135 183 196 188 167 215 227 232 259 172 194 198 201 215 216 211 208 208 212 211 211 209 207 210 219 244 272 285 294 296 308 312 309 308 309 310 310 311 312
156 201 176 131 143 157 221 199 193 204 226 218 255 228 203 198 206 214 221 217 212 210 212 217 218 213 211 213 218 229 253 279 275 281 286 298 306 307 305 305 306 307 310 311
325 186 117 251 59 51 272 246 203 221 237 251 242 258 157 213 218 215 222 209 209 214 221 223 218 215 216 219 228 238 255 265 265 272 285 295 303 305 304 304 305 307 310 312
173 134 137 241 113 110 272 245 211 190 182 181 215 239 169 209 215 224 223 210 213 232 228 222 218 216 221 227 234 243 254 258 264 273 280 283 294 300 302 303 306 309 312 314
151 116 96 136 79 230 250 25 56 208 228 204 269 232 198 222 234 237 231 227 228 229 228 219 213 213 221 224 241 253 257 256 262 267 275 286 296 300 302 306 310 313 314 315
14 132 139 171 209 309 260 193 159 162 251 194 207 218 203 182 178 231 217 220 225 232 225 208 209 208 224 247 260 263 259 261 263 269 279 291 299 302 305 310 313 315 315 315
79 16 190 135 204 232 269 188 152 116 277 212 201 177 162 153 159 232 203 207 209 205 204 193 204 229 245 259 266 261 257 257 261 272 285 296 301 303 310 313 315 317 317 316
121 81 212 212 229 278 201 171 161 117 257 184 199 186 170 186 191 138 184 209 211 207 195 211 240 257 263 268 268 258 255 258 268 281 292 298 301 308 312 313 317 318 317 316
155 168 199 132 224 260 156 108 167 201 166 175 176 185 190 199 221 239 239 226 214 206 214 242 259 254 262 266 262 256 258 266 277 288 296 299 305 308 312 314 316 314 315 316
247 188 180 188 206 200 175 172 200 180 173 182 185 185 203 224 231 230 230 215 204 211 241 250 251 252 257 259 257 259 265 276 286 293 296 302 306 311 314 315 316 316 319 319
256 156 164 99 209 210 199 217 216 207 215 220 215 218 217 226 230 232 233 220 216 238 252 250 249 248 253 256 257 263 272 280 287 290 297 304 308 311 313 316 318 318 322 322
212 141 147 283 275 257 236 229 229 225 231 237 238 236 231 241 239 235 239 237 247 256 259 255 254 251 253 256 260 268 275 281 283 290 299 305 308 310 313 315 319 322 324 326
192 156 163 208 204 187 215 231 246 244 245 255 266 258 248 246 252 250 251 253 255 259 261 256 250 246 251 255 262 268 273 276 284 293 300 303 306 311 314 316 316 321 321 328